Location: Chin
(49.7667°N, 112.4500°W)
Time: 11:30:54
(UTC+00:00)

N. Korean satellite - Pass Details

Date: 07 December 2021
Orbit: 447 x 490 km, 97.3° (Epoch: 27 January)

Event Time Altitude Azimuth Distance (km) Brightness Sun altitude
Rises 12:46:29 0° 14° (NNE) 2,467 10.2 -22.6°
Reaches altitude 10° 12:48:32 10° 17° (NNE) 1,587 9.2 -22.3°
Maximum altitude 12:51:55 71° 102° (ESE) 478 6.6 -21.8°
Drops below altitude 10° 12:55:17 10° 187° (S) 1,573 9.2 -21.2°
Sets 12:57:18 0° 190° (S) 2,442 10.2 -20.9°
